KUIPER-00133

Last updated on Mon Oct 20 2025 00:02:06 GMT+0000 (Coordinated Universal Time)

1 65764U 25217C 25292.25002315 -.00275120 00000+0 -87979-2 0 9993 2 65764 51.8667 328.1103 0008168 195.2682 14.3194 15.32984138 4298
UTC large
Height (km)
Speed (km/s)
/
Latitude / Longitude
Inclination (degrees)
Orbital Period (minutes)
Azimuth
Elevation
Range (km)
Doppler Factor

Next 0 passes for location: London (51.5072 / 0.1276)

Sorry there are no passes over London.